Binghamton, NY

1:27 AM EST on January 20, 2017 (GMT -0500)
Binghamton Regional-Link

Weather History for KBGM - September, 2013

Change the Weather History Date:

Saturday, September 21, 2013

  Actual Average Record
Temperature  
Mean Temperature 61 °F 58 °F  
Max Temperature 66 °F 66 °F 83 °F (1965)
Min Temperature 55 °F 49 °F 31 °F (1956)
Degree Days  
Heating Degree Days 4 8  
Month to date heating degree days 143 106  
Since 1 July heating degree days 194 169  
Cooling Degree Days 0 1  
Month to date cooling degree days 41 28  
Year to date cooling degree days 468 376  
Growing Degree Days 10 (Base 50)    
Moisture  
Dew Point 55 °F    
Average Humidity 85    
Maximum Humidity 97    
Minimum Humidity 73    
Precipitation  
Precipitation 0.54 in 0.12 in 1.35 in (1983)
Month to date precipitation 2.90 2.50  
Year to date precipitation 33.19 28.71  
Snow  
Snow 0.00 in 0.00 in 0.00 in (2002)
Month to date snowfall 0.0 0.0  
Since 1 July snowfall 0.0 0.0  
Since 1 September snowfall 0.0 0.0  
Snow Depth 0.00 in    
Sea Level Pressure  
Sea Level Pressure 29.76 in    
Wind  
Wind Speed 9 mph (South)    
Max Wind Speed 21 mph    
Max Gust Speed 31 mph    
Visibility 6 miles    
Events Fog , Rain    
T = Trace of Precipitation, MM = Missing Value Source: NWS Daily Summary

Daily Weather History Graph

Daily Weather History Graph

Search for Another Location

Airport or City:

Trip Planner

Search our weather history database for the weather conditions in past years. The results will help you decide how hot, cold, wet, or windy it might be!

Date:

Astronomy

Sep. 21, 2013 Rise Set
Actual Time 6:50 AM EDT 7:02 PM EDT
Civil Twilight 6:22 AM EDT 7:30 PM EDT
Nautical Twilight 5:49 AM EDT 8:03 PM EDT
Astronomical Twilight 5:16 AM EDT 8:36 PM EDT
Moon 8:08 PM EDT (9/21) 9:09 AM EDT (9/21)
Length of Visible Light 13h 08m
Length of Day
12h 12m
Waning Gibbous, 94% of the Moon is Illuminated
Sep 21
Waning Gibbous
Sep 26
Last Quarter
Oct 4
New
Oct 11
First Quarter
Oct 18
Full

Hourly Weather History & Observations

Time (EDT) Temp. Dew Point Humidity Pressure Visibility Wind Dir Wind Speed Gust Speed Precip Events Conditions
12:53 AM 61.0 °F 53.1 °F 75% 29.92 in 10.0 mi South 10.4 mph - N/A   Clear
1:53 AM 59.0 °F 53.1 °F 81% 29.90 in 10.0 mi SSE 9.2 mph - N/A   Clear
2:53 AM 57.9 °F 53.1 °F 84% 29.89 in 10.0 mi South 5.8 mph - N/A   Clear
3:53 AM 57.9 °F 53.1 °F 84% 29.88 in 10.0 mi South 9.2 mph - N/A   Clear
4:53 AM 57.0 °F 54.0 °F 89% 29.87 in 10.0 mi South 9.2 mph - N/A   Partly Cloudy
5:53 AM 57.0 °F 54.0 °F 89% 29.85 in 10.0 mi SSE 8.1 mph - N/A   Mostly Cloudy
6:05 AM 57.2 °F 53.6 °F 88% 29.87 in 10.0 mi South 5.8 mph - N/A   Mostly Cloudy
6:53 AM 59.0 °F 55.0 °F 87% 29.85 in 9.0 mi South 9.2 mph - N/A   Overcast
7:18 AM 59.0 °F 55.4 °F 88% 29.87 in 8.0 mi South 8.1 mph - N/A   Overcast
7:53 AM 59.0 °F 55.9 °F 90% 29.84 in 7.0 mi SSE 6.9 mph - N/A   Overcast
8:38 AM 60.8 °F 55.4 °F 82% 29.83 in 8.0 mi South 11.5 mph 18.4 mph N/A   Overcast
8:53 AM 60.1 °F 55.9 °F 86% 29.82 in 8.0 mi South 11.5 mph - N/A   Overcast
9:53 AM 62.1 °F 55.9 °F 80% 29.81 in 9.0 mi South 12.7 mph 19.6 mph N/A   Overcast
10:03 AM 62.6 °F 55.4 °F 77% 29.82 in 10.0 mi South 10.4 mph 19.6 mph N/A   Overcast
10:53 AM 63.0 °F 55.9 °F 78% 29.79 in 10.0 mi South 12.7 mph 19.6 mph N/A   Overcast
11:53 AM 63.0 °F 55.0 °F 75% 29.78 in 10.0 mi South 12.7 mph 27.6 mph N/A   Overcast
12:53 PM 64.0 °F 55.9 °F 75% 29.75 in 10.0 mi South 12.7 mph 23.0 mph N/A   Overcast
1:53 PM 64.9 °F 55.9 °F 73% 29.72 in 10.0 mi South 16.1 mph 26.5 mph N/A   Overcast
2:53 PM 64.0 °F 55.9 °F 75% 29.70 in 10.0 mi South 6.9 mph 17.3 mph N/A   Overcast
3:53 PM 64.0 °F 55.9 °F 75% 29.68 in 10.0 mi South 11.5 mph 17.3 mph N/A   Overcast
4:53 PM 63.0 °F 57.9 °F 84% 29.67 in 10.0 mi South 10.4 mph - 0.00 in Rain Light Rain
5:31 PM 62.6 °F 59.0 °F 88% 29.67 in 2.5 mi South 12.7 mph 18.4 mph 0.07 in Rain Rain
5:51 PM 62.6 °F 59.0 °F 88% 29.67 in 3.0 mi South 6.9 mph - 0.11 in Rain Light Rain
5:53 PM 61.0 °F 59.0 °F 93% 29.67 in 2.5 mi South 6.9 mph - 0.11 in Rain Light Rain
6:33 PM 60.8 °F 59.0 °F 94% 29.68 in 3.0 mi South 11.5 mph 21.9 mph 0.09 in Rain Light Rain
6:41 PM 60.8 °F 59.0 °F 94% 29.68 in 3.0 mi SSW 11.5 mph 20.7 mph 0.11 in Rain Rain
6:53 PM 57.0 °F 55.0 °F 93% 29.69 in 2.5 mi NW 9.2 mph 23.0 mph 0.18 in Rain Heavy Rain
6:58 PM 57.2 °F 55.4 °F 94% 29.70 in 3.0 mi WNW 11.5 mph 23.0 mph 0.01 in Rain Rain
7:09 PM 57.2 °F 55.4 °F 94% 29.70 in 5.0 mi NW 10.4 mph - 0.04 in Rain Light Rain
7:53 PM 55.9 °F 54.0 °F 93% 29.70 in 6.0 mi WNW 6.9 mph - 0.08 in Rain Light Rain
8:53 PM 55.0 °F 54.0 °F 96% 29.71 in 6.0 mi Calm Calm - 0.06 in Rain Light Rain
9:53 PM 55.0 °F 54.0 °F 96% 29.70 in 3.0 mi South 3.5 mph - 0.06 in Rain Light Rain
10:10 PM 55.4 °F 53.6 °F 94% 29.71 in 1.8 mi South 4.6 mph - 0.02 in Rain Light Rain
10:20 PM 55.4 °F 53.6 °F 94% 29.71 in 1.5 mi SSE 3.5 mph - 0.03 in Rain Light Rain
10:37 PM 55.4 °F 53.6 °F 94% 29.71 in 1.0 mi South 4.6 mph - 0.04 in Rain Light Rain
10:53 PM 55.0 °F 54.0 °F 96% 29.70 in 2.5 mi South 4.6 mph - 0.04 in   Overcast
11:02 PM 55.4 °F 53.6 °F 94% 29.70 in 1.2 mi SSW 3.5 mph - N/A   Overcast
11:10 PM 55.4 °F 53.6 °F 94% 29.70 in 3.0 mi SW 4.6 mph - N/A   Overcast
11:43 PM 55.4 °F 53.6 °F 94% 29.71 in 1.2 mi WSW 5.8 mph - N/A   Overcast
11:49 PM 55.4 °F 53.6 °F 94% 29.71 in 0.2 mi WSW 4.6 mph - N/A Fog Fog
11:50 PM 55.0 °F 54.0 °F 96% 29.70 in 0.2 mi WSW 5.8 mph - N/A Fog Fog